This demonstration page uses our WeatherBlox Daily Observations layout. Learn more.

Left ArrowRight Arrow

Hourly Observations for November 3, 2019

Temp ( °F °C ) Dew Point ( °F °C ) Humidity (%) Winds ( mph kmh ) Pressure ( in mb ) Visibility ( mi km ) Precip ( " mm )
12:53 am 00:53 Clear 41 5 33 0.6 73 73 Calm 30.22 1023 10 16 0.00 0.00
1:53 am 01:53 Clear 39 3.9 33 0.6 79 79 WNW 3 6 30.22 1023 10 16 0.00 0.00
1:53 am 01:53 Clear 37 2.8 33 0.6 86 86 Calm 30.22 1024 10 16 0.00 0.00
2:53 am 02:53 Clear 38 3.3 34 1.1 86 86 Calm 30.23 1024 10 16 0.00 0.00
3:53 am 03:53 Clear 36 2.2 31 -0.6 82 82 Calm 30.23 1024 10 16 0.00 0.00
4:53 am 04:53 Clear 35 1.7 31 -0.6 85 85 Calm 30.24 1024 10 16 0.00 0.00
5:53 am 05:53 Clear 37 2.8 32 0 82 82 Calm 30.25 1024 10 16 0.00 0.00
6:53 am 06:53 Clear 33 0.6 30 -1.1 89 89 Calm 30.27 1025 10 16 0.00 0.00
7:53 am 07:53 Sunny 36 2.2 33 0.6 89 89 Calm 30.28 1026 10 16 0.00 0.00
8:53 am 08:53 Sunny 42 5.6 35 1.7 76 76 Calm 30.30 1026 10 16 0.00 0.00
9:53 am 09:53 Sunny 49 9.4 36 2.2 61 61 VRB 5 7 30.30 1026 10 16 0.00 0.00
10:53 am 10:53 Sunny 53 11.7 34 1.1 48 48 VRB 5 7 30.29 1026 10 16 0.00 0.00
11:53 am 11:53 Sunny 56 13.3 33 0.6 42 42 VRB 3 6 30.27 1025 10 16 0.00 0.00
12:53 pm 12:53 Sunny 59 15 32 0 36 36 NE 6 9 30.23 1024 10 16 0.00 0.00
1:53 pm 13:53 Sunny 60 15.6 27 -2.8 28 28 WSW 3 6 30.20 1023 10 16 0.00 0.00
2:53 pm 14:53 Sunny 60 15.6 26 -3.3 27 27 VRB 3 6 30.19 1023 10 16 0.00 0.00
3:53 pm 15:53 Sunny 61 16.1 26 -3.3 26 26 W 5 7 30.18 1022 10 16 0.00 0.00
4:53 pm 16:53 Sunny 61 16.1 29 -1.7 30 30 Calm 30.19 1022 10 16 0.00 0.00
5:53 pm 17:53 Clear 54 12.2 36 2.2 51 51 Calm 30.19 1022 10 16 0.00 0.00
6:53 pm 18:53 Clear 46 7.8 39 3.9 77 77 Calm 30.20 1023 10 16 0.00 0.00
7:53 pm 19:53 Clear 45 7.2 40 4.4 83 83 Calm 30.20 1023 10 16 0.00 0.00
8:53 pm 20:53 Clear 43 6.1 39 3.9 86 86 Calm 30.21 1023 10 16 0.00 0.00
9:53 pm 21:53 Clear 41 5 37 2.8 86 86 Calm 30.22 1024 10 16 0.00 0.00
10:53 pm 22:53 Clear 39 3.9 37 2.8 93 93 Calm 30.21 1023 10 16 0.00 0.00
11:53 pm 23:53 Clear 40 4.4 37 2.8 89 89 Calm 30.21 1023 10 16 0.00 0.00

Powered by AerisWeather